OPS 0100 DEB *, 4843

Orbit data source: Space-Track

OPS 0100 DEB *, 4843 is space debris in LEO originally from a launch on Fri, 14 Apr 1967 UTC launched from the Air Force Western Test Range (AFWTR). Debris objects in space refer to the collection of defunct objects orbiting the Earth. Examples of debris include non-operational satellites, rocket bodies, and fragments generated from explosions, collisions, or faulty payload assembly.

Loading next visibility...
OPS 0100 DEB * details
Identifier
4843, 1967-034E
Orbit
LEO
Last TLE update15 hours ago
Origin
Flag of USUSN NAVAIR (US)
ManufacturerUnknown
MissionSpacecraft
Bus & MotorUnknown
MassUnknown
Launch date (UTC)
1967-04-14 (58 years ago)
Launch vehicleUnknown
Launch site
Air Force Western Test Range (AFWTR)
Object type
Payload
Rocket body
Debris
Shape & HBRUnknown
Radar Cross SectionSmall (<0.1 m²)

Expand to show TLE details & history

TLE from 15 hours ago
0 OPS 0100 DEB *
1 04843U 67034E   24356.63619205  .00000280  00000-0  41117-3 0  9998
2 04843  90.3920 120.6701 0025754 267.0705 224.2203 13.52466890200305
Epoch: 2024-12-21T15:16Z
Definitive object data (Epoch: 2024-12-21T15:16:06.993Z)
Latitude49.00583°
Longitude-18.59481°
Altitude1,084.751 km
Speed7.308 km/s
True Right ascension20h 04m 28s
True Declination48° 50' 35"
Sunlit
Object was in daylight at TLE epoch
Visualization TLE readout
Latitude-61.11387°
Longitude161.6882°
Altitude1,070.865 km
Speed7.324 km/s
Apparent Right ascension14h 13m 15s
Apparent Declination-73° 10' 13"
Sunlit
Object is in daylight
Visualization observer readout
Local Sidereal Time05:22:44
Azimuth160.7° S
Elevation-49.869°
Doppler factor1
Orbital elements
Apogee altitude1,079.4 km
Perigee altitude1,041.086 km
Semi-major axis7,438.38 km
Eccentricity0.0025754
Inclination90.392°
RAAN120.6701°
Arg. of periapsis267.0705°
True anomaly224.01495°
Mean anomaly224.2203°
Eccentric anomaly224.11758°
Mean motion3.38318 °/min
BSTAR0.00041117
Orbital period106.41 mins
Loading maneuver chart data...
Loading historical data...
Loading historical data...
Loading historical data...
Loading historical data...
Loading historical data...
Loading historical data...
Loading historical data...

OPS 0100 DEB * Visibility forecast

Observer location: undefined°, undefined

Span
Click to sort rows by Start time (UTC) header in descending order
Start Az.
Max El. time (UTC)
Max El. Az.
Max El.
End time (UTC)
End Az.
13 mins2024-12-22 08:28:00.494Z161.536° S2024-12-22 08:34:00.494Z103.926° ESE41.157°2024-12-22 08:41:00.494Z4.176° NNE
7 mins2024-12-22 10:18:00.494Z245.871° WSW2024-12-22 10:21:00.494Z278.076° WNW19.362°2024-12-22 10:25:00.494Z319.813° NNW
9 mins2024-12-22 19:39:00.494Z35.507° NE2024-12-22 19:43:00.494Z79.179° E22.903°2024-12-22 19:48:00.494Z132.235° SE
11 mins2024-12-22 21:25:00.494Z347.175° N2024-12-22 21:30:00.494Z269.241° W37.934°2024-12-22 21:36:00.494Z205.445° SW
|